ATLAS CENTAUR R/B (6155 NORAD) Tracking and Keplerian Element Data

This shows tracking and keplerian element data for the satellite.

Feedback or suggestion? Click here.




ElementValue
Catalog6155
NameATLAS CENTAUR R/B
Epoch Orbit80322
Epoch Day35.20104309
Epoch Year2025
RAAN118.4651
Inclination35.0018
Eccentricity0.0035241
Argument of Perigee259.3865
Mean Anonmoly100.2865
Mean Motion14.76143658
Decay Rate2.656E-05
L11 06155U 72065B 25035.20104309 .00002656 00000+0 37751-3 0 9995
L22 06155 35.0018 118.4651 0035241 259.3865 100.2865 14.76143658803227



Live tracking and technical data element details for ATLAS CENTAUR R/B (NORAD 6155). ATLAS CENTAUR R/B can be tracked NOW for your location showing map with azimuth and elevation plus other details from your city location.







IsCatalogInMostPopularTable: catalog: 6155, numindb: 435
Update: records affected: 1



GetName: 6155 ATLAS CENTAUR R/B

Hit Count: updated at: Thu, 15 May 2025 10:05:32 GMT